This demonstration page uses our WeatherBlox Daily Observations layout. Learn more.

Left ArrowRight Arrow

39.92423, -83.80882

Hourly Observations for June 27, 2021

Temp ( °F °C ) Dew Point ( °F °C ) Humidity (%) Winds ( mph kmh ) Pressure ( in mb ) Visibility ( mi km ) Precip ( " mm )
12:56 am 00:56 Clear 73 22.8 69 20.6 87 87 SSW 5 7 30.04 1017 10 16 N/A
1:56 am 01:56 Clear 74 23.3 68 20 82 82 SSW 6 9 30.04 1017 10 16 N/A
2:56 am 02:56 Clear 73 22.8 68 20 84 84 SSW 6 9 30.03 1017 10 16 N/A
3:56 am 03:56 Clear 72 22.2 68 20 87 87 SSW 8 13 30.02 1017 10 16 N/A
4:56 am 04:56 Clear 72 22.2 68 20 87 87 SW 12 19 30.01 1016 10 16 N/A
5:56 am 05:56 Clear 72 22.2 68 20 87 87 SSW 8 13 30.02 1017 10 16 N/A
6:56 am 06:56 Sunny 72 22.2 69 20.6 91 91 SSW 9 15 30.04 1017 10 16 N/A
7:56 am 07:56 Sunny 74 23.3 69 20.6 85 85 SSW 12 19 30.06 1018 10 16 N/A
8:56 am 08:56 Sunny 76 24.4 70 21.1 82 82 SSW 13 20 30.06 1018 10 16 N/A
9:56 am 09:56 Sunny 79 26.1 71 21.7 77 77 SSW 12 19 30.07 1018 10 16 N/A
10:56 am 10:56 Sunny 82 27.8 71 21.7 69 69 SW 15 24 30.08 1019 10 16 N/A
11:56 am 11:56 Mostly Cloudy 84 28.9 71 21.7 65 65 SW 13 20 30.09 1019 10 16 N/A
12:56 pm 12:56 Mostly Cloudy 84 28.9 71 21.7 65 65 SW 16 26 30.09 1019 10 16 N/A
1:56 pm 13:56 Mostly Sunny 86 30 71 21.7 61 61 SSW 10 17 30.08 1019 10 16 N/A
2:56 pm 14:56 Mostly Sunny 88 31.1 71 21.7 57 57 SW 16 26 30.06 1018 10 16 N/A
3:56 pm 15:56 Sunny 88 31.1 71 21.7 57 57 SW 10 17 30.05 1018 10 16 N/A
4:56 pm 16:56 Sunny 89 31.7 71 21.7 55 55 SSW 14 22 30.04 1017 10 16 N/A
5:56 pm 17:56 Mostly Sunny 87 30.6 70 21.1 57 57 SSW 8 13 30.04 1017 10 16 N/A
6:56 pm 18:56 Mostly Cloudy 86 30 71 21.7 61 61 SSW 8 13 30.06 1018 10 16 N/A
7:56 pm 19:56 Sunny 85 29.4 71 21.7 63 63 S 7 11 30.05 1018 10 16 N/A
8:56 pm 20:56 Cloudy 81 27.2 72 22.2 74 74 SSW 3 6 30.08 1019 10 16 N/A
9:56 pm 21:56 Mostly Clear 80 26.7 72 22.2 76 76 S 6 9 30.09 1019 10 16 N/A
10:56 pm 22:56 Mostly Clear 78 25.6 71 21.7 79 79 S 5 7 30.11 1020 10 16 N/A
11:56 pm 23:56 Clear 77 25 71 21.7 82 82 S 5 7 30.11 1020 10 16 N/A

Powered by AerisWeather